TITAN 3C TRANSTAGE DEB, 1833

Orbit data source: Space-Track

TITAN 3C TRANSTAGE DEB, 1833 is space debris in LEO originally from a launch on Fri, 15 Oct 1965 UTC launched from the Air Force Eastern Test Range (AFETR). Debris objects in space refer to the collection of defunct objects orbiting the Earth. Examples of debris include non-operational satellites, rocket bodies, and fragments generated from explosions, collisions, or faulty payload assembly.

Loading next visibility...
Identifier
1833, 1965-082DY
Orbit
LEO
Last TLE update
23 hours ago
Origin
Manufacturer
Unknown
Mission
Spacecraft
Bus & Motor
Unknown
Mass
Unknown
Launch date (UTC)
1965-10-15 (60 years ago)
Launch vehicle
Unknown
Launch site
Air Force Eastern Test Range (AFETR)
Object type
Payload
Rocket body
Debris
Shape & HBR
Unknown
Radar Cross Section
Medium (>0.1 m² and <1 m²)

Expand to show TLE details & history

TLE from 23 hours ago
0 TITAN 3C TRANSTAGE DEB
1 01833U 65082DY  25128.30933800  .00005094  00000-0  78706-3 0  9999
2 01833  32.2258 115.3209 0062127  28.7600 331.6454 14.70904743110222
Epoch: 2025-05-08T07:25Z
Definitive object data (Epoch: 2025-05-08T07:25:26.803Z)
Latitude
-0.00003°
Longitude
137.57749°
Altitude
618.437 km
Speed
7.573 km/s
True Right ascension
07h 41m 17s
True Declination
0° 00' 00"
Sunlit
Object was in daylight at TLE epoch
Visualization TLE readout
Latitude
23.25986°
Longitude
-90.9649°
Altitude
660.098 km
Speed
7.53 km/s
Apparent Right ascension
19h 22m 09s
Apparent Declination
-26° 00' 38"
Sunlit
Object is in full shadow
Visualization observer readout
Local Sidereal Time
14:58:13
Azimuth
124.823° SE
Elevation
-0.049°
Doppler factor
1
Orbital elements
Apogee altitude
705.513 km
Perigee altitude
618.04 km
Semi-major axis
7,039.914 km
Eccentricity
0.0062127
Inclination
32.2258°
RAAN
115.3209°
Arg. of periapsis
28.76°
True anomaly
331.30496°
Mean anomaly
331.6454°
Eccentric anomaly
331.47542°
Mean motion
3.67445 °/min
BSTAR
0.00078706
Orbital period
97.97 mins
Loading maneuver chart data...
Loading SW <> Apogee altitude chart data...

TITAN 3C TRANSTAGE DEB Visibility forecast

Observer location: undefined°, undefined°

Span
Click to sort rows by Start time (UTC) header in descending order
Start Az.
Max El. time (UTC)
Max El. Az.
Max El.
End time (UTC)
End Az.
5 mins2025-05-10 03:43:19.794Z210.854° SW2025-05-10 03:45:19.794Z170.343° S25.112°2025-05-10 03:48:19.794Z119.595° SE
6 mins2025-05-10 05:26:19.794Z228.997° WSW2025-05-10 05:28:19.794Z189.193° SSW26.21°2025-05-10 05:32:19.794Z127.049° SE
|